Terminal Aerodrome Forecast
Issued by NWS Bismarck, ND

Home | Current Version | Previous Version | Graphics & Text | Print | Product List | Glossary On
Versions: 1 2 3 4 5 6 7 8 9 10 11 12 13 14 15 16 17 18 19 20 21 22 23 24 25 26 27 28 29 30 31
000
FTUS43 KBIS 061120
TAFBIS
TAF
KBIS 061120Z 0612/0712 30024G35KT 1SM -SN BLSN OVC015
     FM061700 30024G34KT 2SM BLSN VCSH OVC015
     FM061900 30023G32KT 3SM BLSN VCSH OVC035
     FM070800 30016KT 5SM BLSN OVC020=

USA.gov is the U.S. government's official web portal to all federal, state and local government web resources and services.